Time,TemperatureF,DewpointF,PressureIn,WindDirection,WindDirectionDegrees,WindSpeedMPH,WindSpeedGustMPH,Humidity,HourlyPrecipIn,Conditions,Clouds,dailyrainin,SoftwareType,DateUTC
2013-09-03 00:12:00,55.7,52.0,30.00,NNE,14,0.0,2.0,86,0.00,,,0.00,weatherlink.com 1.10,2013-09-03 05:12:00,
2013-09-03 00:27:00,55.3,51.0,30.00,NNE,14,0.0,1.0,86,0.00,,,0.00,weatherlink.com 1.10,2013-09-03 05:27:00,
2013-09-03 00:42:00,54.4,51.0,30.00,NNE,14,0.0,1.0,88,0.00,,,0.00,weatherlink.com 1.10,2013-09-03 05:42:00,
2013-09-03 00:57:00,54.4,51.0,30.00,NNE,14,0.0,1.0,89,0.00,,,0.00,weatherlink.com 1.10,2013-09-03 05:57:00,
2013-09-03 01:12:00,54.2,51.0,30.00,NNE,14,0.0,0.0,89,0.00,,,0.00,weatherlink.com 1.10,2013-09-03 06:12:00,
2013-09-03 01:27:00,53.6,51.0,30.00,NNE,14,0.0,0.0,89,0.00,,,0.00,weatherlink.com 1.10,2013-09-03 06:27:00,
2013-09-03 01:42:00,53.5,51.0,30.01,NNE,14,0.0,1.0,90,0.00,,,0.00,weatherlink.com 1.10,2013-09-03 06:42:00,
2013-09-03 01:57:00,53.3,50.0,30.01,NNE,14,0.0,0.0,89,0.00,,,0.00,weatherlink.com 1.10,2013-09-03 06:57:00,
2013-09-03 02:12:00,52.5,50.0,30.01,NNE,14,0.0,0.0,91,0.00,,,0.00,weatherlink.com 1.10,2013-09-03 07:12:00,
2013-09-03 02:27:00,52.3,50.0,30.01,NNE,14,0.0,0.0,92,0.00,,,0.00,weatherlink.com 1.10,2013-09-03 07:27:00,
2013-09-03 02:42:00,51.8,49.0,30.01,NNE,14,0.0,0.0,91,0.00,,,0.00,weatherlink.com 1.10,2013-09-03 07:42:00,
2013-09-03 02:57:00,52.2,50.0,30.01,NNE,14,1.0,2.0,92,0.00,,,0.00,weatherlink.com 1.10,2013-09-03 07:57:00,
2013-09-03 03:12:00,52.5,50.0,30.02,NNE,14,0.0,2.0,91,0.00,,,0.00,weatherlink.com 1.10,2013-09-03 08:12:00,
2013-09-03 03:27:00,52.3,50.0,30.02,NNE,14,1.0,3.0,91,0.00,,,0.00,weatherlink.com 1.10,2013-09-03 08:27:00,
2013-09-03 03:42:00,52.2,50.0,30.02,North,9,1.0,2.0,92,0.00,,,0.00,weatherlink.com 1.10,2013-09-03 08:42:00,
2013-09-03 03:57:00,52.0,50.0,30.02,North,9,0.0,1.0,92,0.00,,,0.00,weatherlink.com 1.10,2013-09-03 08:57:00,
2013-09-03 04:12:00,51.7,50.0,30.02,North,9,0.0,1.0,92,0.00,,,0.00,weatherlink.com 1.10,2013-09-03 09:12:00,
2013-09-03 04:27:00,51.1,49.0,30.03,North,9,0.0,1.0,93,0.00,,,0.00,weatherlink.com 1.10,2013-09-03 09:27:00,
2013-09-03 04:42:00,51.1,49.0,30.03,North,9,0.0,0.0,93,0.00,,,0.00,weatherlink.com 1.10,2013-09-03 09:42:00,
2013-09-03 04:57:00,50.6,49.0,30.03,North,9,0.0,0.0,93,0.00,,,0.00,weatherlink.com 1.10,2013-09-03 09:57:00,
2013-09-03 05:12:00,50.1,49.0,30.04,North,9,0.0,0.0,94,0.00,,,0.00,weatherlink.com 1.10,2013-09-03 10:12:00,
2013-09-03 05:27:00,50.1,49.0,30.04,North,9,0.0,0.0,94,0.00,,,0.00,weatherlink.com 1.10,2013-09-03 10:27:00,
2013-09-03 05:42:00,50.1,49.0,30.05,North,9,0.0,0.0,94,0.00,,,0.00,weatherlink.com 1.10,2013-09-03 10:42:00,
2013-09-03 05:57:00,49.6,48.0,30.05,North,9,0.0,0.0,94,0.00,,,0.00,weatherlink.com 1.10,2013-09-03 10:57:00,
2013-09-03 06:12:00,49.2,48.0,30.05,North,9,0.0,0.0,94,0.00,,,0.00,weatherlink.com 1.10,2013-09-03 11:12:00,
2013-09-03 06:27:00,48.9,47.0,30.05,North,9,0.0,0.0,94,0.00,,,0.00,weatherlink.com 1.10,2013-09-03 11:27:00,
2013-09-03 06:42:00,48.8,48.0,30.05,North,9,0.0,0.0,95,0.00,,,0.00,weatherlink.com 1.10,2013-09-03 11:42:00,
2013-09-03 06:57:00,48.8,48.0,30.06,North,9,0.0,0.0,95,0.00,,,0.00,weatherlink.com 1.10,2013-09-03 11:57:00,
2013-09-03 07:12:00,49.3,48.0,30.06,North,9,0.0,0.0,96,0.00,,,0.00,weatherlink.com 1.10,2013-09-03 12:12:00,
2013-09-03 07:27:00,49.9,49.0,30.06,North,9,0.0,0.0,96,0.00,,,0.00,weatherlink.com 1.10,2013-09-03 12:27:00,
2013-09-03 07:42:00,50.8,50.0,30.07,North,9,0.0,0.0,96,0.00,,,0.00,weatherlink.com 1.10,2013-09-03 12:42:00,
2013-09-03 07:57:00,51.8,51.0,30.08,North,9,0.0,0.0,97,0.00,,,0.00,weatherlink.com 1.10,2013-09-03 12:57:00,
2013-09-03 08:12:00,53.1,52.0,30.08,North,9,0.0,0.0,97,0.00,,,0.00,weatherlink.com 1.10,2013-09-03 13:12:00,
2013-09-03 08:27:00,54.9,54.0,30.08,North,9,1.0,2.0,95,0.00,,,0.00,weatherlink.com 1.10,2013-09-03 13:27:00,
2013-09-03 08:42:00,56.1,54.0,30.09,North,9,0.0,2.0,91,0.00,,,0.00,weatherlink.com 1.10,2013-09-03 13:42:00,
2013-09-03 08:58:00,57.1,54.0,30.09,North,9,0.0,1.0,88,0.00,,,0.00,weatherlink.com 1.10,2013-09-03 13:58:00,
2013-09-03 09:13:00,57.8,53.0,30.09,North,9,0.0,3.0,85,0.00,,,0.00,weatherlink.com 1.10,2013-09-03 14:13:00,
2013-09-03 09:28:00,58.5,54.0,30.09,North,9,0.0,2.0,85,0.00,,,0.00,weatherlink.com 1.10,2013-09-03 14:28:00,
2013-09-03 09:43:00,59.3,54.0,30.09,NNE,28,1.0,1.0,82,0.00,,,0.00,weatherlink.com 1.10,2013-09-03 14:43:00,
2013-09-03 09:58:00,60.4,54.0,30.09,NNE,24,2.0,4.0,79,0.00,,,0.00,weatherlink.com 1.10,2013-09-03 14:58:00,
2013-09-03 10:13:00,61.3,53.0,30.10,North,355,0.0,5.0,75,0.00,,,0.00,weatherlink.com 1.10,2013-09-03 15:13:00,
2013-09-03 10:28:00,61.9,54.0,30.09,NNE,12,2.0,5.0,75,0.00,,,0.00,weatherlink.com 1.10,2013-09-03 15:28:00,
2013-09-03 10:43:00,62.3,54.0,30.09,ESE,113,0.0,4.0,74,0.00,,,0.00,weatherlink.com 1.10,2013-09-03 15:43:00,
2013-09-03 10:58:00,62.7,54.0,30.08,North,10,0.0,4.0,73,0.00,,,0.00,weatherlink.com 1.10,2013-09-03 15:58:00,
2013-09-03 11:13:00,63.2,54.0,30.09,North,10,2.0,5.0,72,0.00,,,0.00,weatherlink.com 1.10,2013-09-03 16:13:00,
2013-09-03 11:28:00,63.6,54.0,30.08,NNW,336,3.0,3.0,70,0.00,,,0.00,weatherlink.com 1.10,2013-09-03 16:28:00,
2013-09-03 11:43:00,64.0,54.0,30.08,East,84,0.0,2.0,71,0.00,,,0.00,weatherlink.com 1.10,2013-09-03 16:43:00,
2013-09-03 11:58:00,64.5,55.0,30.08,North,355,1.0,5.0,70,0.00,,,0.00,weatherlink.com 1.10,2013-09-03 16:58:00,
2013-09-03 12:13:00,65.2,55.0,30.07,NNE,19,0.0,4.0,69,0.00,,,0.00,weatherlink.com 1.10,2013-09-03 17:13:00,
2013-09-03 12:28:00,65.9,53.0,30.07,NNW,327,0.0,3.0,63,0.00,,,0.00,weatherlink.com 1.10,2013-09-03 17:28:00,
2013-09-03 12:43:00,66.3,53.0,30.07,NNE,25,0.0,3.0,63,0.00,,,0.00,weatherlink.com 1.10,2013-09-03 17:43:00,
2013-09-03 12:58:00,67.2,55.0,30.07,NNW,348,0.0,3.0,66,0.00,,,0.00,weatherlink.com 1.10,2013-09-03 17:58:00,
2013-09-03 13:13:00,68.7,55.0,30.06,North,11,0.0,2.0,63,0.00,,,0.00,weatherlink.com 1.10,2013-09-03 18:13:00,
2013-09-03 13:28:00,69.3,53.0,30.06,NNE,28,0.0,3.0,57,0.00,,,0.00,weatherlink.com 1.10,2013-09-03 18:28:00,
2013-09-03 13:43:00,70.1,54.0,30.06,NNW,330,1.0,4.0,58,0.00,,,0.00,weatherlink.com 1.10,2013-09-03 18:43:00,
2013-09-03 13:58:00,71.0,53.0,30.05,North,10,2.0,4.0,53,0.00,,,0.00,weatherlink.com 1.10,2013-09-03 18:58:00,
2013-09-03 14:13:00,71.0,53.0,30.05,NNE,19,2.0,5.0,54,0.00,,,0.00,weatherlink.com 1.10,2013-09-03 19:13:00,
2013-09-03 14:28:00,71.6,54.0,30.04,North,355,1.0,5.0,55,0.00,,,0.00,weatherlink.com 1.10,2013-09-03 19:28:00,
2013-09-03 14:43:00,71.3,55.0,30.04,NNE,32,0.0,4.0,56,0.00,,,0.00,weatherlink.com 1.10,2013-09-03 19:43:00,
2013-09-03 14:58:00,72.4,56.0,30.03,NNW,344,0.0,3.0,56,0.00,,,0.00,weatherlink.com 1.10,2013-09-03 19:58:00,
2013-09-03 15:14:00,72.7,54.0,30.03,East,85,0.0,3.0,53,0.00,,,0.00,weatherlink.com 1.10,2013-09-03 20:14:00,
2013-09-03 15:29:00,72.2,56.0,30.02,NE,43,0.0,2.0,58,0.00,,,0.00,weatherlink.com 1.10,2013-09-03 20:29:00,
2013-09-03 15:44:00,72.2,57.0,30.02,NE,34,1.0,3.0,59,0.00,,,0.00,weatherlink.com 1.10,2013-09-03 20:44:00,
2013-09-03 15:59:00,71.8,54.0,30.02,SE,141,0.0,2.0,54,0.00,,,0.00,weatherlink.com 1.10,2013-09-03 20:59:00,
2013-09-03 16:14:00,71.9,55.0,30.02,NW,309,0.0,2.0,56,0.00,,,0.00,weatherlink.com 1.10,2013-09-03 21:14:00,
2013-09-03 16:29:00,71.7,56.0,30.02,NW,309,1.0,1.0,59,0.00,,,0.00,weatherlink.com 1.10,2013-09-03 21:29:00,
2013-09-03 16:44:00,71.1,57.0,30.02,NNE,19,0.0,3.0,61,0.00,,,0.00,weatherlink.com 1.10,2013-09-03 21:44:00,
2013-09-03 16:59:00,70.8,55.0,30.02,North,355,0.0,5.0,58,0.00,,,0.00,weatherlink.com 1.10,2013-09-03 21:59:00,
2013-09-03 17:14:00,70.3,57.0,30.02,WNW,303,0.0,1.0,64,0.00,,,0.00,weatherlink.com 1.10,2013-09-03 22:14:00,
2013-09-03 17:29:00,69.8,58.0,30.01,WNW,303,0.0,1.0,66,0.00,,,0.00,weatherlink.com 1.10,2013-09-03 22:29:00,
2013-09-03 17:44:00,69.2,58.0,30.01,WNW,303,0.0,1.0,67,0.00,,,0.00,weatherlink.com 1.10,2013-09-03 22:44:00,
2013-09-03 17:59:00,68.9,59.0,30.01,SW,236,0.0,2.0,70,0.00,,,0.00,weatherlink.com 1.10,2013-09-03 22:59:00,
2013-09-03 18:14:00,68.6,57.0,30.01,ESE,103,0.0,0.0,67,0.00,,,0.00,weatherlink.com 1.10,2013-09-03 23:14:00,
2013-09-03 18:29:00,68.0,57.0,30.00,East,88,0.0,1.0,68,0.00,,,0.00,weatherlink.com 1.10,2013-09-03 23:29:00,
2013-09-03 18:44:00,67.5,57.0,30.00,East,88,0.0,0.0,69,0.00,,,0.00,weatherlink.com 1.10,2013-09-03 23:44:00,
2013-09-03 18:59:00,67.0,56.0,30.00,East,88,0.0,0.0,68,0.00,,,0.00,weatherlink.com 1.10,2013-09-03 23:59:00,
2013-09-03 19:14:00,66.3,55.0,30.00,East,88,0.0,0.0,68,0.00,,,0.00,weatherlink.com 1.10,2013-09-04 00:14:00,
2013-09-03 19:29:00,65.5,57.0,30.01,East,88,0.0,0.0,75,0.00,,,0.00,weatherlink.com 1.10,2013-09-04 00:29:00,
2013-09-03 19:44:00,64.3,58.0,30.01,East,88,0.0,0.0,79,0.00,,,0.00,weatherlink.com 1.10,2013-09-04 00:44:00,
2013-09-03 19:59:00,63.0,57.0,30.02,East,88,0.0,0.0,81,0.00,,,0.00,weatherlink.com 1.10,2013-09-04 00:59:00,
2013-09-03 20:14:00,61.7,57.0,30.02,East,88,0.0,0.0,83,0.00,,,0.00,weatherlink.com 1.10,2013-09-04 01:14:00,
2013-09-03 20:29:00,60.6,56.0,30.03,East,88,0.0,0.0,84,0.00,,,0.00,weatherlink.com 1.10,2013-09-04 01:29:00,
2013-09-03 20:44:00,59.7,55.0,30.03,East,88,0.0,0.0,85,0.00,,,0.00,weatherlink.com 1.10,2013-09-04 01:44:00,
2013-09-03 20:59:00,58.9,55.0,30.02,East,88,0.0,0.0,87,0.00,,,0.00,weatherlink.com 1.10,2013-09-04 01:59:00,
2013-09-03 21:14:00,58.1,55.0,30.02,East,88,0.0,0.0,88,0.00,,,0.00,weatherlink.com 1.10,2013-09-04 02:14:00,
2013-09-03 21:29:00,57.7,55.0,30.02,East,88,0.0,0.0,89,0.00,,,0.00,weatherlink.com 1.10,2013-09-04 02:29:00,
2013-09-03 21:44:00,57.3,55.0,30.02,East,88,0.0,0.0,90,0.00,,,0.00,weatherlink.com 1.10,2013-09-04 02:44:00,
2013-09-03 21:59:00,56.9,54.0,30.02,East,88,0.0,0.0,90,0.00,,,0.00,weatherlink.com 1.10,2013-09-04 02:59:00,
2013-09-03 22:14:00,56.6,54.0,30.02,East,88,0.0,0.0,92,0.00,,,0.00,weatherlink.com 1.10,2013-09-04 03:14:00,
2013-09-03 22:29:00,56.7,55.0,30.03,East,88,0.0,0.0,92,0.00,,,0.00,weatherlink.com 1.10,2013-09-04 03:29:00,
2013-09-03 22:44:00,56.8,55.0,30.02,East,88,0.0,0.0,92,0.00,,,0.00,weatherlink.com 1.10,2013-09-04 03:44:00,
2013-09-03 22:59:00,56.4,54.0,30.02,East,88,0.0,0.0,91,0.00,,,0.00,weatherlink.com 1.10,2013-09-04 03:59:00,
2013-09-03 23:14:00,55.9,53.0,30.02,East,88,0.0,0.0,91,0.00,,,0.00,weatherlink.com 1.10,2013-09-04 04:14:00,
2013-09-03 23:29:00,55.2,53.0,30.02,East,88,0.0,0.0,92,0.00,,,0.00,weatherlink.com 1.10,2013-09-04 04:29:00,
2013-09-03 23:44:00,54.7,53.0,30.02,East,88,0.0,0.0,92,0.00,,,0.00,weatherlink.com 1.10,2013-09-04 04:44:00,
2013-09-03 23:59:00,54.9,53.0,30.03,East,88,0.0,0.0,94,0.00,,,0.00,weatherlink.com 1.10,2013-09-04 04:59:00,